contact:dominique.lefevre@mio.osupytheas.fr, maurice.libes@osupytheas.fr, didier.mallarino@osupytheas.fr
Project:EMSO http://www.emso-fr.org/EMSO-France
Depth: 2436.0 m
Title:EMSO Ligure Ouest : Data MII capteur AQUADOPP
Date,Latitude,Longitude,X_East,Y_North,Z_Up,Amplitude_X,Amplitude_Y,Amplitude_Z,Batterie,SoundSpeed,Heading,Pitch,Roll,Pressure,TIS,Speed,Direction
, degrees North, degrees East, m.s-1, m.s-1,m.s-1, 1, 1, 1, Volt, m.s-1, degree, degree, degree, dbar, degree_C, m.s-1, degree
2023-04-10T00:04:02,42.805,6.029,0.02,-0.009,0.002,104.0,104.0,102.0,13.4,1505.2,322.5,-0.8,1.8,2471.377,13.29,0.021,114.2
2023-04-10T00:07:03,42.805,6.029,0.005,-0.008,-0.011,106.0,104.0,102.0,13.3,1505.2,327.5,-0.8,1.8,2471.376,13.29,0.009,148.0
2023-04-10T00:10:03,42.805,6.029,0.005,-0.002,0.003,105.0,105.0,102.0,13.4,1505.2,345.2,-0.8,1.8,2471.347,13.29,0.005,111.8
2023-04-10T00:13:03,42.805,6.029,0.021,-0.017,-0.027,104.0,104.0,102.0,13.4,1505.2,320.4,-0.8,1.8,2471.367,13.29,0.027,129.0
2023-04-10T00:16:03,42.805,6.029,-0.017,0.003,0.015,105.0,103.0,103.0,13.4,1505.2,327.3,-0.8,1.8,2471.378,13.29,0.017,280.0
2023-04-10T00:19:03,42.805,6.029,-0.01,0.006,-0.029,104.0,104.0,103.0,13.4,1505.2,345.0,-0.8,1.8,2471.341,13.29,0.011,301.0
2023-04-10T00:22:03,42.805,6.029,0.0,-0.005,-0.032,104.0,105.0,102.0,13.3,1505.2,324.9,-0.8,1.8,2471.361,13.29,0.005,180.0
2023-04-10T00:25:03,42.805,6.029,0.003,-0.002,-0.023,104.0,103.0,104.0,13.4,1505.2,339.4,-0.8,1.8,2471.385,13.29,0.003,123.7
2023-04-10T00:28:03,42.805,6.029,0.002,-0.023,-0.03,105.0,103.0,102.0,13.4,1505.2,320.9,-0.8,1.8,2471.384,13.29,0.023,175.0
2023-04-10T00:31:03,42.805,6.029,0.005,-0.006,-0.047,104.0,105.0,102.0,13.3,1505.2,335.1,-0.8,1.8,2471.376,13.29,0.007,140.2
2023-04-10T00:34:03,42.805,6.029,-0.017,-0.007,-0.019,104.0,105.0,103.0,13.3,1505.2,329.2,-0.8,1.8,2471.36,13.29,0.018,247.6
2023-04-10T00:37:03,42.805,6.029,-0.008,-0.015,-0.023,104.0,105.0,102.0,13.4,1505.2,319.8,-0.8,1.8,2471.334,13.29,0.017,208.1
2023-04-10T00:40:03,42.805,6.029,0.003,-0.01,-0.023,105.0,105.0,102.0,13.4,1505.2,322.9,-0.8,1.8,2471.309,13.29,0.01,163.3
2023-04-10T00:43:03,42.805,6.029,0.005,-0.017,-0.024,105.0,103.0,102.0,13.4,1505.2,320.1,-0.7,1.8,2471.344,13.29,0.017,163.6
2023-04-10T00:46:03,42.805,6.029,-0.004,-0.03,-0.057,104.0,103.0,103.0,13.4,1505.2,334.8,-0.8,1.8,2471.345,13.29,0.03,187.6
2023-04-10T00:49:03,42.805,6.029,-0.005,-0.007,-0.013,105.0,102.0,104.0,13.4,1505.2,324.4,-0.8,1.8,2471.305,13.29,0.008,215.5
2023-04-10T00:52:03,42.805,6.029,0.015,-0.018,-0.017,105.0,105.0,103.0,13.4,1505.2,345.4,-0.7,1.8,2471.3,13.29,0.023,140.2
2023-04-10T00:55:03,42.805,6.029,-0.01,-0.016,-0.028,105.0,103.0,102.0,13.4,1505.2,333.9,-0.8,1.8,2471.28,13.29,0.018,212.0
2023-04-10T00:58:03,42.805,6.029,-0.005,-0.01,-0.043,105.0,103.0,106.0,13.3,1505.2,322.9,-0.8,1.8,2471.333,13.29,0.011,206.6
2023-04-10T01:04:03,42.805,6.029,0.018,-0.009,-0.008,106.0,104.0,103.0,13.4,1505.2,318.2,-0.8,1.9,2471.37,13.28,0.02,116.6
2023-04-10T01:07:03,42.805,6.029,0.016,-0.025,-0.036,104.0,104.0,103.0,13.4,1505.2,326.3,-0.7,1.8,2471.368,13.28,0.029,147.4
2023-04-10T01:10:03,42.805,6.029,-0.014,0.012,0.0,106.0,103.0,102.0,13.4,1505.2,333.4,-0.8,1.8,2471.343,13.29,0.018,310.6
2023-04-10T01:13:03,42.805,6.029,-0.009,-0.009,-0.032,105.0,103.0,103.0,13.4,1505.2,336.2,-0.8,1.8,2471.316,13.29,0.012,225.0
2023-04-10T01:16:03,42.805,6.029,-0.03,-0.003,-0.009,105.0,103.0,102.0,13.4,1505.2,340.5,-0.8,1.8,2471.346,13.29,0.03,264.3
2023-04-10T01:19:03,42.805,6.029,0.0,-0.041,-0.029,105.0,104.0,102.0,13.3,1505.2,344.4,-0.7,1.8,2471.301,13.29,0.041,180.0
2023-04-10T01:22:03,42.805,6.029,0.005,-0.053,-0.032,105.0,104.0,102.0,13.4,1505.2,320.1,-0.8,1.8,2471.307,13.29,0.053,174.6
2023-04-10T01:25:03,42.805,6.029,-0.012,-0.016,-0.011,105.0,104.0,103.0,13.4,1505.2,323.1,-0.8,1.8,2471.3,13.29,0.02,216.9
2023-04-10T01:28:03,42.805,6.029,-0.001,-0.008,-0.028,105.0,105.0,102.0,13.3,1505.2,345.4,-0.8,1.8,2471.323,13.29,0.008,187.1
2023-04-10T01:31:03,42.805,6.029,0.008,-0.022,-0.043,106.0,105.0,103.0,13.4,1505.2,320.7,-0.8,1.8,2471.281,13.29,0.023,160.0
2023-04-10T01:34:03,42.805,6.029,-0.016,-0.012,-0.037,105.0,104.0,104.0,13.3,1505.2,323.1,-0.8,1.8,2471.313,13.29,0.02,233.1
2023-04-10T01:37:03,42.805,6.029,0.008,-0.031,-0.043,104.0,105.0,103.0,13.3,1505.2,331.4,-0.8,1.8,2471.296,13.29,0.032,165.5
2023-04-10T01:40:03,42.805,6.029,-0.015,-0.006,-0.026,105.0,105.0,102.0,13.3,1505.2,327.1,-0.7,1.8,2471.267,13.29,0.016,248.2
2023-04-10T01:43:03,42.805,6.029,-0.012,-0.021,0.005,104.0,105.0,102.0,13.4,1505.2,330.1,-0.7,1.8,2471.301,13.29,0.024,209.7
2023-04-10T01:46:03,42.805,6.029,-0.009,0.001,-0.03,106.0,105.0,103.0,13.4,1505.2,334.3,-0.8,1.8,2471.299,13.29,0.009,276.3
2023-04-10T01:49:03,42.805,6.029,-0.014,-0.013,-0.009,105.0,105.0,103.0,13.3,1505.2,341.5,-0.8,1.8,2471.292,13.29,0.019,227.1
2023-04-10T01:52:03,42.805,6.029,0.007,-0.04,-0.031,105.0,105.0,102.0,13.3,1505.2,322.7,-0.7,1.8,2471.303,13.29,0.04,170.1
2023-04-10T01:55:03,42.805,6.029,0.011,-0.015,-0.002,105.0,104.0,103.0,13.4,1505.2,317.5,-0.8,1.8,2471.291,13.29,0.018,143.7
2023-04-10T01:58:03,42.805,6.029,-0.009,-0.01,-0.016,105.0,106.0,103.0,13.4,1505.2,325.5,-0.8,1.8,2471.289,13.29,0.013,222.0
2023-04-10T02:04:03,42.805,6.029,-0.021,-0.014,-0.008,105.0,104.0,103.0,13.3,1505.2,335.3,-0.8,1.8,2471.328,13.28,0.025,236.3
2023-04-10T02:07:03,42.805,6.029,-0.028,-0.019,-0.057,105.0,102.0,103.0,13.3,1505.2,337.4,-0.7,1.8,2471.288,13.29,0.033,235.8
2023-04-10T02:10:03,42.805,6.029,-0.03,-0.008,-0.03,105.0,105.0,103.0,13.3,1505.2,338.8,-0.7,1.8,2471.349,13.29,0.031,255.1
2023-04-10T02:13:03,42.805,6.029,-0.014,-0.031,-0.022,104.0,106.0,101.0,13.4,1505.2,321.9,-0.7,1.8,2471.316,13.29,0.034,204.3
2023-04-10T02:16:03,42.805,6.029,-0.035,-0.018,-0.025,106.0,105.0,102.0,13.4,1505.2,335.4,-0.7,1.8,2471.307,13.29,0.039,242.8
2023-04-10T02:19:03,42.805,6.029,0.008,-0.025,-0.011,103.0,105.0,102.0,13.4,1505.2,326.3,-0.8,1.8,2471.308,13.29,0.026,162.3
2023-04-10T02:22:03,42.805,6.029,-0.008,-0.007,-0.026,107.0,104.0,103.0,13.4,1505.2,342.5,-0.8,1.8,2471.277,13.29,0.01,228.8
2023-04-10T02:25:03,42.805,6.029,-0.009,-0.018,-0.062,105.0,104.0,103.0,13.4,1505.2,318.6,-0.7,1.8,2471.27,13.29,0.02,206.6
2023-04-10T02:28:03,42.805,6.029,-0.011,-0.002,-0.016,105.0,105.0,102.0,13.4,1505.2,331.8,-0.8,1.8,2471.357,13.29,0.011,259.7
2023-04-10T02:31:03,42.805,6.029,-0.009,-0.012,0.01,104.0,105.0,103.0,13.4,1505.2,339.3,-0.8,1.8,2471.263,13.29,0.015,216.9
2023-04-10T02:34:03,42.805,6.029,-0.031,-0.007,-0.026,103.0,106.0,102.0,13.4,1505.2,329.7,-0.8,1.8,2471.271,13.29,0.031,257.3
2023-04-10T02:37:03,42.805,6.029,-0.014,-0.01,-0.052,105.0,104.0,102.0,13.4,1505.2,323.6,-0.8,1.8,2471.282,13.29,0.017,234.5
2023-04-10T02:40:03,42.805,6.029,-0.016,-0.014,-0.026,105.0,104.0,102.0,13.4,1505.2,334.3,-0.8,1.8,2471.256,13.29,0.021,228.8
2023-04-10T02:43:03,42.805,6.029,-0.012,-0.021,-0.025,106.0,103.0,103.0,13.4,1505.2,322.9,-0.8,1.8,2471.28,13.29,0.024,209.7
2023-04-10T02:46:03,42.805,6.029,-0.032,-0.006,-0.06,106.0,103.0,104.0,13.4,1505.2,344.6,-0.7,1.9,2471.261,13.29,0.032,259.4
2023-04-10T02:49:03,42.805,6.029,-0.017,-0.021,-0.027,105.0,104.0,102.0,13.4,1505.2,339.1,-0.7,1.8,2471.248,13.29,0.027,219.0
2023-04-10T02:52:03,42.805,6.029,-0.038,-0.016,-0.023,105.0,106.0,102.0,13.3,1505.2,331.4,-0.7,1.8,2471.316,13.29,0.041,247.2
2023-04-10T02:55:03,42.805,6.029,0.0,-0.022,-0.002,107.0,107.0,102.0,13.4,1505.2,332.4,-0.8,1.8,2471.238,13.29,0.022,180.0
2023-04-10T02:58:03,42.805,6.029,-0.016,0.014,-0.009,106.0,105.0,102.0,13.4,1505.2,322.1,-0.7,1.8,2471.262,13.29,0.021,311.2
2023-04-10T03:04:03,42.805,6.029,-0.022,-0.018,-0.018,106.0,105.0,102.0,13.4,1505.2,343.1,-0.8,1.8,2471.315,13.29,0.028,230.7
2023-04-10T03:07:03,42.805,6.029,-0.011,0.013,-0.028,105.0,105.0,104.0,13.3,1505.2,338.9,-0.8,1.8,2471.261,13.29,0.017,319.8
2023-04-10T03:10:03,42.805,6.029,0.005,-0.016,-0.008,106.0,104.0,103.0,13.4,1505.2,333.4,-0.8,1.8,2471.289,13.29,0.016,162.6
2023-04-10T03:13:03,42.805,6.029,0.009,-0.003,-0.025,105.0,104.0,103.0,13.4,1505.2,317.4,-0.8,1.8,2471.245,13.29,0.009,108.4
2023-04-10T03:16:03,42.805,6.029,-0.035,-0.023,-0.026,104.0,105.0,102.0,13.4,1505.2,326.0,-0.7,1.8,2471.301,13.29,0.041,236.7
2023-04-10T03:19:03,42.805,6.029,-0.019,-0.008,-0.033,105.0,104.0,102.0,13.4,1505.2,332.9,-0.8,1.8,2471.274,13.29,0.02,247.2
2023-04-10T03:22:03,42.805,6.029,-0.024,-0.019,-0.013,105.0,105.0,102.0,13.3,1505.2,335.2,-0.7,1.8,2471.272,13.29,0.03,231.6
2023-04-10T03:25:03,42.805,6.029,-0.002,-0.008,-0.048,105.0,104.0,104.0,13.4,1505.2,331.9,-0.8,1.8,2471.232,13.29,0.008,194.0
2023-04-10T03:28:03,42.805,6.029,0.0,-0.025,-0.004,105.0,105.0,103.0,13.4,1505.2,318.3,-0.7,1.8,2471.219,13.29,0.025,180.0
2023-04-10T03:31:03,42.805,6.029,-0.007,-0.003,-0.034,105.0,105.0,103.0,13.3,1505.2,338.2,-0.7,1.8,2471.275,13.29,0.007,246.8
2023-04-10T03:34:03,42.805,6.029,-0.012,0.001,-0.02,104.0,104.0,104.0,13.4,1505.2,329.6,-0.8,1.8,2471.262,13.29,0.012,274.8
2023-04-10T03:37:03,42.805,6.029,-0.004,-0.007,-0.032,105.0,104.0,102.0,13.4,1505.2,316.8,-0.8,1.8,2471.232,13.29,0.008,209.7
2023-04-10T03:40:03,42.805,6.029,-0.019,-0.014,-0.046,105.0,105.0,102.0,13.4,1505.2,325.4,-0.8,1.8,2471.222,13.29,0.023,233.6
2023-04-10T03:43:03,42.805,6.029,-0.021,0.005,-0.018,106.0,104.0,103.0,13.3,1505.2,336.9,-0.8,1.8,2471.262,13.29,0.021,283.4
2023-04-10T03:46:03,42.805,6.029,-0.007,-0.001,-0.03,104.0,106.0,103.0,13.4,1505.2,329.9,-0.8,1.8,2471.253,13.29,0.007,261.9
2023-04-10T03:49:03,42.805,6.029,-0.025,-0.011,-0.016,106.0,105.0,103.0,13.4,1505.2,333.4,-0.7,1.8,2471.234,13.29,0.027,246.3
2023-04-10T03:52:03,42.805,6.029,-0.006,-0.012,-0.003,104.0,104.0,103.0,13.3,1505.2,320.7,-0.8,1.8,2471.258,13.29,0.013,206.6
2023-04-10T03:55:03,42.805,6.029,-0.023,-0.012,-0.027,104.0,104.0,102.0,13.3,1505.2,326.3,-0.8,1.8,2471.262,13.29,0.025,242.4
2023-04-10T03:58:03,42.805,6.029,-0.001,0.012,-0.011,104.0,105.0,104.0,13.3,1505.2,336.5,-0.8,1.8,2471.26,13.29,0.012,355.2
2023-04-10T04:04:03,42.805,6.029,-0.014,-0.004,-0.022,104.0,105.0,102.0,13.4,1505.2,326.3,-0.8,1.9,2471.296,13.29,0.014,254.1
2023-04-10T04:07:03,42.805,6.029,-0.002,0.014,-0.026,105.0,103.0,102.0,13.4,1505.2,339.1,-0.8,1.8,2471.269,13.29,0.014,351.9
2023-04-10T04:10:03,42.805,6.029,-0.01,-0.004,-0.042,105.0,103.0,102.0,13.3,1505.2,323.8,-0.8,1.8,2471.278,13.29,0.01,248.2
2023-04-10T04:13:03,42.805,6.029,-0.032,-0.015,-0.04,105.0,103.0,102.0,13.4,1505.2,325.1,-0.8,1.8,2471.27,13.29,0.035,244.9
2023-04-10T04:16:03,42.805,6.029,-0.013,0.0,-0.014,104.0,104.0,103.0,13.4,1505.2,335.7,-0.8,1.9,2471.318,13.29,0.013,270.0
2023-04-10T04:19:03,42.805,6.029,-0.021,-0.004,-0.014,105.0,103.0,102.0,13.4,1505.2,343.2,-0.7,1.8,2471.284,13.29,0.021,259.2
2023-04-10T04:22:03,42.805,6.029,-0.016,-0.011,-0.019,104.0,103.0,102.0,13.4,1505.2,335.7,-0.7,1.8,2471.267,13.29,0.019,235.5
2023-04-10T04:25:03,42.805,6.029,-0.031,-0.009,-0.033,103.0,103.0,104.0,13.4,1505.2,320.5,-0.8,1.8,2471.285,13.29,0.032,253.8
2023-04-10T04:28:03,42.805,6.029,-0.002,-0.01,-0.011,104.0,103.0,103.0,13.4,1505.2,325.0,-0.8,1.8,2471.264,13.29,0.01,191.3
2023-04-10T04:31:03,42.805,6.029,-0.01,-0.001,-0.026,105.0,103.0,102.0,13.4,1505.2,330.5,-0.7,1.8,2471.238,13.29,0.01,264.3
2023-04-10T04:34:03,42.805,6.029,-0.027,-0.006,-0.037,103.0,104.0,102.0,13.4,1505.2,329.5,-0.8,1.8,2471.258,13.29,0.027,257.5
2023-04-10T04:37:03,42.805,6.029,-0.019,0.0,-0.028,104.0,104.0,103.0,13.4,1505.2,317.8,-0.8,1.8,2471.243,13.29,0.019,270.0
2023-04-10T04:40:03,42.805,6.029,-0.043,-0.003,-0.025,104.0,104.0,102.0,13.4,1505.2,325.0,-0.7,1.8,2471.29,13.29,0.043,266.0
2023-04-10T04:43:03,42.805,6.029,-0.002,-0.01,-0.03,103.0,105.0,101.0,13.3,1505.2,324.3,-0.7,1.8,2471.259,13.29,0.01,191.3
2023-04-10T04:46:03,42.805,6.029,-0.017,0.005,-0.006,103.0,103.0,102.0,13.4,1505.2,323.5,-0.8,1.8,2471.273,13.29,0.017,286.4
2023-04-10T04:49:03,42.805,6.029,-0.011,-0.007,-0.004,104.0,103.0,103.0,13.4,1505.2,327.1,-0.7,1.8,2471.228,13.29,0.013,237.5
2023-04-10T04:52:03,42.805,6.029,-0.025,-0.013,-0.024,103.0,105.0,102.0,13.3,1505.2,336.5,-0.8,1.8,2471.238,13.29,0.028,242.5
2023-04-10T04:55:03,42.805,6.029,-0.027,0.006,-0.033,105.0,104.0,102.0,13.4,1505.2,332.9,-0.8,1.8,2471.268,13.29,0.027,282.5
2023-04-10T04:58:03,42.805,6.029,-0.009,-0.006,-0.005,104.0,104.0,102.0,13.4,1505.2,333.0,-0.7,1.8,2471.262,13.29,0.01,236.3
2023-04-10T05:04:03,42.805,6.029,-0.016,0.018,0.019,105.0,103.0,102.0,13.3,1505.2,332.6,-0.8,1.8,2471.266,13.29,0.024,318.4
2023-04-10T05:07:03,42.805,6.029,0.008,-0.028,-0.046,104.0,103.0,103.0,13.3,1505.2,316.8,-0.8,1.8,2471.296,13.29,0.029,164.1
2023-04-10T05:10:03,42.805,6.029,0.003,0.013,-0.006,105.0,103.0,102.0,13.4,1505.2,331.4,-0.8,1.8,2471.274,13.29,0.013,13.0
2023-04-10T05:13:03,42.805,6.029,-0.019,0.005,-0.038,104.0,103.0,101.0,13.4,1505.2,343.2,-0.7,1.8,2471.24,13.29,0.019,284.7
2023-04-10T05:16:03,42.805,6.029,-0.012,0.001,-0.003,105.0,104.0,102.0,13.4,1505.2,322.1,-0.8,1.8,2471.285,13.29,0.012,274.8
2023-04-10T05:19:03,42.805,6.029,-0.011,-0.016,0.002,103.0,104.0,103.0,13.4,1505.2,326.3,-0.8,1.8,2471.316,13.29,0.019,214.5
2023-04-10T05:22:03,42.805,6.029,-0.017,-0.009,-0.029,105.0,103.0,102.0,13.4,1505.2,337.8,-0.8,1.8,2471.263,13.29,0.019,242.1
2023-04-10T05:25:03,42.805,6.029,-0.004,0.01,-0.013,104.0,103.0,102.0,13.4,1505.2,334.8,-0.8,1.8,2471.307,13.29,0.01,338.2
2023-04-10T05:28:03,42.805,6.029,-0.02,-0.007,-0.037,106.0,103.0,103.0,13.3,1505.2,327.8,-0.8,1.8,2471.257,13.29,0.021,250.7
2023-04-10T05:31:03,42.805,6.029,-0.016,-0.009,-0.018,104.0,104.0,102.0,13.4,1505.2,329.5,-0.8,1.8,2471.267,13.29,0.018,240.6
2023-04-10T05:34:03,42.805,6.029,-0.012,0.017,-0.013,104.0,103.0,103.0,13.3,1505.2,333.9,-0.8,1.8,2471.253,13.29,0.02,324.8
2023-04-10T05:37:03,42.805,6.029,-0.006,0.004,-0.027,103.0,104.0,102.0,13.4,1505.2,339.7,-0.8,1.8,2471.274,13.29,0.007,303.7
2023-04-10T05:40:03,42.805,6.029,-0.013,-0.002,-0.013,105.0,102.0,102.0,13.4,1505.2,323.6,-0.8,1.8,2471.248,13.29,0.013,261.3
2023-04-10T05:43:03,42.805,6.029,-0.01,0.001,-0.064,104.0,104.0,102.0,13.3,1505.2,336.8,-0.8,1.8,2471.318,13.29,0.01,275.7
2023-04-10T05:46:03,42.805,6.029,-0.017,-0.005,-0.03,103.0,104.0,102.0,13.4,1505.2,328.1,-0.8,1.8,2471.267,13.29,0.017,253.6
2023-04-10T05:49:03,42.805,6.029,-0.011,0.007,0.001,103.0,105.0,102.0,13.4,1505.2,330.5,-0.8,1.8,2471.314,13.29,0.013,302.5
2023-04-10T05:52:03,42.805,6.029,0.001,0.004,0.006,103.0,104.0,103.0,13.4,1505.2,329.0,-0.8,1.8,2471.266,13.29,0.004,14.0
2023-04-10T05:55:03,42.805,6.029,-0.013,-0.001,-0.02,106.0,103.0,101.0,13.3,1505.2,342.8,-0.8,1.8,2471.285,13.29,0.013,265.6
2023-04-10T05:58:03,42.805,6.029,-0.006,-0.012,-0.036,105.0,104.0,103.0,13.4,1505.2,332.1,-0.7,1.8,2471.267,13.29,0.013,206.6
2023-04-10T06:04:03,42.805,6.029,-0.018,0.03,0.0,104.0,104.0,101.0,13.3,1505.2,317.8,-0.8,1.8,2471.333,13.29,0.034,329.0
2023-04-10T06:07:03,42.805,6.029,-0.013,0.003,-0.016,104.0,104.0,102.0,13.4,1505.2,335.1,-0.8,1.8,2471.319,13.29,0.013,283.0
2023-04-10T06:10:03,42.805,6.029,-0.01,0.004,-0.015,104.0,107.0,102.0,13.4,1505.2,324.3,-0.8,1.8,2471.311,13.29,0.01,291.8
2023-04-10T06:13:03,42.805,6.029,-0.027,-0.013,-0.016,104.0,103.0,101.0,13.4,1505.2,337.3,-0.8,1.9,2471.288,13.29,0.029,244.3
2023-04-10T06:16:03,42.805,6.029,-0.007,0.013,-0.009,105.0,104.0,102.0,13.3,1505.2,336.5,-0.7,1.8,2471.302,13.29,0.014,331.7
2023-04-10T06:19:03,42.805,6.029,-0.003,0.017,0.0,105.0,105.0,102.0,13.3,1505.2,329.1,-0.7,1.8,2471.309,13.29,0.017,350.0
2023-04-10T06:22:03,42.805,6.029,-0.014,0.005,-0.042,104.0,103.0,102.0,13.4,1505.2,335.8,-0.7,1.8,2471.291,13.29,0.014,289.6
2023-04-10T06:25:03,42.805,6.029,-0.009,-0.003,-0.039,103.0,103.0,102.0,13.4,1505.2,323.8,-0.7,1.8,2471.311,13.29,0.009,251.6
2023-04-10T06:28:03,42.805,6.029,-0.004,0.004,-0.018,102.0,105.0,101.0,13.4,1505.2,317.3,-0.8,1.8,2471.314,13.29,0.005,315.0
2023-04-10T06:31:03,42.805,6.029,-0.013,-0.001,-0.047,105.0,104.0,102.0,13.4,1505.2,332.0,-0.8,1.8,2471.307,13.29,0.013,265.6
2023-04-10T06:34:03,42.805,6.029,-0.016,-0.003,0.01,105.0,104.0,101.0,13.4,1505.2,328.5,-0.7,1.8,2471.307,13.29,0.016,259.4
2023-04-10T06:37:03,42.805,6.029,-0.024,0.006,-0.015,103.0,104.0,102.0,13.4,1505.2,340.4,-0.8,1.8,2471.304,13.29,0.024,284.0
2023-04-10T06:40:03,42.805,6.029,-0.003,0.013,-0.019,104.0,105.0,102.0,13.4,1505.2,320.1,-0.7,1.8,2471.312,13.29,0.013,347.0
2023-04-10T06:43:03,42.805,6.029,-0.023,0.005,-0.016,105.0,104.0,103.0,13.4,1505.2,322.0,-0.8,1.8,2471.327,13.29,0.023,282.3
2023-04-10T06:46:03,42.805,6.029,-0.001,-0.007,-0.018,106.0,105.0,102.0,13.4,1505.2,320.3,-0.7,1.8,2471.312,13.29,0.007,188.1
2023-04-10T06:49:03,42.805,6.029,-0.011,-0.005,-0.014,104.0,104.0,103.0,13.4,1505.2,329.7,-0.7,1.8,2471.36,13.29,0.012,245.6
2023-04-10T06:52:03,42.805,6.029,0.001,-0.004,-0.003,105.0,103.0,103.0,13.3,1505.2,338.4,-0.8,1.8,2471.317,13.29,0.004,166.0
2023-04-10T06:55:03,42.805,6.029,-0.02,-0.004,-0.022,105.0,105.0,102.0,13.4,1505.2,321.9,-0.8,1.8,2471.323,13.29,0.02,258.7
2023-04-10T06:58:03,42.805,6.029,-0.034,-0.001,-0.004,104.0,104.0,103.0,13.3,1505.2,323.3,-0.8,1.8,2471.283,13.29,0.034,268.3
2023-04-10T07:04:03,42.805,6.029,-0.008,-0.002,-0.047,105.0,102.0,102.0,13.4,1505.2,327.5,-0.8,1.8,2471.369,13.29,0.008,256.0
2023-04-10T07:07:03,42.805,6.029,-0.024,-0.001,-0.059,105.0,106.0,103.0,13.4,1505.2,324.7,-0.8,1.8,2471.353,13.29,0.024,267.6
2023-04-10T07:10:03,42.805,6.029,-0.019,0.003,-0.028,105.0,104.0,103.0,13.4,1505.2,329.0,-0.7,1.8,2471.35,13.29,0.019,279.0
2023-04-10T07:13:03,42.805,6.029,-0.025,-0.002,-0.001,107.0,103.0,102.0,13.4,1505.2,330.1,-0.8,1.8,2471.367,13.29,0.025,265.4
2023-04-10T07:16:03,42.805,6.029,-0.003,0.006,-0.009,103.0,103.0,103.0,13.4,1505.2,331.5,-0.8,1.8,2471.29,13.29,0.006,333.4
2023-04-10T07:19:03,42.805,6.029,-0.013,0.016,-0.027,104.0,103.0,102.0,13.3,1505.2,323.3,-0.8,1.8,2471.359,13.29,0.02,320.9
2023-04-10T07:22:03,42.805,6.029,-0.017,-0.003,-0.019,104.0,104.0,103.0,13.4,1505.2,328.6,-0.7,1.8,2471.347,13.29,0.017,260.0
2023-04-10T07:25:03,42.805,6.029,0.001,0.015,-0.003,106.0,104.0,102.0,13.4,1505.2,321.1,-0.8,1.8,2471.348,13.29,0.015,3.8
2023-04-10T07:28:03,42.805,6.029,-0.01,-0.003,-0.016,106.0,103.0,102.0,13.4,1505.2,335.6,-0.8,1.8,2471.386,13.29,0.01,253.3
2023-04-10T07:31:03,42.805,6.029,0.025,0.002,-0.017,103.0,105.0,102.0,13.4,1505.2,343.9,-0.8,1.8,2471.351,13.29,0.025,85.4
2023-04-10T07:34:03,42.805,6.029,0.008,0.0,-0.015,104.0,104.0,103.0,13.4,1505.2,335.2,-0.8,1.8,2471.356,13.29,0.008,90.0
2023-04-10T07:37:03,42.805,6.029,-0.011,0.011,-0.025,105.0,105.0,102.0,13.4,1505.2,340.5,-0.8,1.8,2471.359,13.29,0.015,315.0
2023-04-10T07:40:03,42.805,6.029,0.009,-0.004,-0.023,105.0,104.0,102.0,13.3,1505.2,331.4,-0.8,1.8,2471.37,13.29,0.009,114.0
2023-04-10T07:43:03,42.805,6.029,-0.014,0.004,-0.034,104.0,105.0,103.0,13.3,1505.2,330.1,-0.8,1.7,2471.35,13.29,0.014,285.9
2023-04-10T07:46:03,42.805,6.029,-0.019,0.009,-0.004,105.0,103.0,103.0,13.3,1505.2,334.8,-0.8,1.8,2471.387,13.29,0.021,295.3
2023-04-10T07:49:03,42.805,6.029,-0.019,-0.005,0.01,105.0,103.0,102.0,13.3,1505.2,322.5,-0.7,1.8,2471.325,13.29,0.019,255.3
2023-04-10T07:52:03,42.805,6.029,-0.042,0.019,-0.007,104.0,104.0,102.0,13.4,1505.2,339.4,-0.8,1.8,2471.378,13.29,0.046,294.3
2023-04-10T07:55:03,42.805,6.029,-0.003,0.011,-0.021,105.0,103.0,102.0,13.4,1505.2,338.3,-0.8,1.8,2471.383,13.29,0.011,344.7
2023-04-10T07:58:03,42.805,6.029,-0.022,0.002,-0.011,105.0,102.0,103.0,13.4,1505.2,323.8,-0.8,1.8,2471.366,13.29,0.022,275.2
2023-04-10T08:04:03,42.805,6.029,-0.02,-0.003,-0.031,104.0,104.0,103.0,13.4,1505.2,319.7,-0.8,1.8,2471.413,13.29,0.02,261.5
2023-04-10T08:07:03,42.805,6.029,-0.022,0.017,-0.01,103.0,105.0,103.0,13.4,1505.2,328.6,-0.8,1.8,2471.398,13.29,0.027,307.7
2023-04-10T08:10:03,42.805,6.029,-0.01,0.006,0.001,105.0,102.0,102.0,13.4,1505.2,324.0,-0.8,1.8,2471.396,13.29,0.011,301.0
2023-04-10T08:13:03,42.805,6.029,-0.009,0.008,-0.016,103.0,103.0,103.0,13.4,1505.2,332.1,-0.7,1.8,2471.412,13.29,0.012,311.6
2023-04-10T08:16:03,42.805,6.029,-0.02,0.006,-0.046,103.0,105.0,102.0,13.4,1505.2,333.9,-0.8,1.8,2471.414,13.29,0.02,286.7
2023-04-10T08:19:03,42.805,6.029,-0.024,0.004,-0.038,104.0,103.0,101.0,13.4,1505.2,326.3,-0.7,1.8,2471.427,13.29,0.024,279.5
2023-04-10T08:22:03,42.805,6.029,-0.026,0.013,-0.028,103.0,104.0,101.0,13.4,1505.2,325.8,-0.7,1.8,2471.391,13.29,0.029,296.6
2023-04-10T08:25:03,42.805,6.029,-0.03,0.001,-0.016,104.0,105.0,102.0,13.4,1505.2,324.0,-0.7,1.8,2471.38,13.29,0.03,271.9
2023-04-10T08:28:03,42.805,6.029,-0.007,0.023,-0.011,104.0,104.0,102.0,13.4,1505.2,323.6,-0.8,1.8,2471.394,13.29,0.024,343.1
2023-04-10T08:31:03,42.805,6.029,-0.008,0.016,-0.011,105.0,102.0,101.0,13.4,1505.2,319.0,-0.8,1.8,2471.401,13.29,0.017,333.4
2023-04-10T08:34:03,42.805,6.029,-0.002,-0.007,-0.022,103.0,104.0,102.0,13.3,1505.2,329.4,-0.8,1.8,2471.379,13.29,0.007,195.9
2023-04-10T08:37:03,42.805,6.029,-0.022,0.0,0.005,104.0,103.0,102.0,13.4,1505.2,324.7,-0.7,1.8,2471.416,13.29,0.022,270.0
2023-04-10T08:40:03,42.805,6.029,-0.012,0.01,-0.019,105.0,104.0,101.0,13.4,1505.2,344.7,-0.8,1.8,2471.425,13.29,0.015,309.8
2023-04-10T08:43:03,42.805,6.029,0.01,-0.003,-0.001,105.0,105.0,102.0,13.3,1505.2,325.8,-0.7,1.8,2471.384,13.29,0.01,106.7
2023-04-10T08:46:03,42.805,6.029,-0.032,0.002,-0.041,105.0,105.0,102.0,13.4,1505.2,342.8,-0.8,1.8,2471.422,13.29,0.032,273.6
2023-04-10T08:49:03,42.805,6.029,-0.009,0.016,-0.01,104.0,105.0,101.0,13.4,1505.2,341.5,-0.8,1.8,2471.384,13.29,0.018,330.6
2023-04-10T08:52:03,42.805,6.029,-0.026,0.0,-0.035,103.0,105.0,102.0,13.4,1505.2,328.1,-0.8,1.8,2471.424,13.29,0.026,270.0
2023-04-10T08:55:03,42.805,6.029,0.008,0.016,-0.002,104.0,104.0,103.0,13.4,1505.2,331.5,-0.7,1.8,2471.379,13.29,0.017,26.6
2023-04-10T08:58:03,42.805,6.029,0.0,-0.003,-0.013,105.0,105.0,102.0,13.4,1505.2,323.5,-0.8,1.8,2471.421,13.29,0.003,180.0
2023-04-10T09:04:03,42.805,6.029,-0.016,0.016,-0.009,103.0,103.0,101.0,13.4,1505.2,337.0,-0.8,1.8,2471.443,13.29,0.022,315.0
2023-04-10T09:07:03,42.805,6.029,0.0,0.01,-0.017,104.0,104.0,103.0,13.4,1505.2,334.6,-0.8,1.8,2471.479,13.29,0.01,0.0
2023-04-10T09:10:03,42.805,6.029,-0.014,0.01,0.007,104.0,101.0,102.0,13.3,1505.2,333.9,-0.8,1.8,2471.406,13.29,0.017,305.5
2023-04-10T09:13:03,42.805,6.029,-0.01,0.01,-0.029,105.0,104.0,103.0,13.4,1505.2,328.8,-0.8,1.8,2471.442,13.29,0.014,315.0
2023-04-10T09:16:03,42.805,6.029,0.0,0.006,-0.016,103.0,105.0,103.0,13.4,1505.2,338.9,-0.8,1.8,2471.365,13.29,0.006,0.0
2023-04-10T09:19:03,42.805,6.029,-0.017,0.02,-0.019,107.0,104.0,101.0,13.3,1505.2,318.5,-0.8,1.8,2471.423,13.29,0.026,319.6
2023-04-10T09:22:03,42.805,6.029,0.02,-0.002,-0.005,104.0,102.0,104.0,13.3,1505.2,332.9,-0.8,1.8,2471.399,13.29,0.02,95.7
2023-04-10T09:25:03,42.805,6.029,0.002,0.001,-0.012,104.0,104.0,102.0,13.3,1505.2,319.7,-0.8,1.8,2471.383,13.29,0.002,63.4
2023-04-10T09:28:03,42.805,6.029,-0.006,0.026,0.0,103.0,103.0,103.0,13.4,1505.2,323.1,-0.7,1.8,2471.364,13.29,0.026,347.0
2023-04-10T09:31:03,42.805,6.029,0.0,0.009,-0.003,104.0,101.0,102.0,13.3,1505.2,326.8,-0.8,1.8,2471.38,13.29,0.009,0.0
2023-04-10T09:34:03,42.805,6.029,0.005,-0.007,-0.043,104.0,104.0,102.0,13.4,1505.2,320.9,-0.8,1.8,2471.41,13.29,0.008,144.5
2023-04-10T09:37:03,42.805,6.029,-0.016,0.003,-0.032,104.0,103.0,102.0,13.4,1505.2,334.8,-0.7,1.8,2471.401,13.29,0.016,280.6
2023-04-10T09:40:03,42.805,6.029,-0.017,-0.001,-0.027,104.0,103.0,103.0,13.3,1505.2,343.2,-0.8,1.8,2471.365,13.29,0.017,266.6
2023-04-10T09:43:03,42.805,6.029,0.001,-0.002,-0.014,103.0,104.0,102.0,13.4,1505.2,323.7,-0.8,1.8,2471.398,13.29,0.002,153.4
2023-04-10T09:46:03,42.805,6.029,-0.015,0.0,0.004,105.0,104.0,101.0,13.3,1505.2,325.8,-0.7,1.8,2471.397,13.29,0.015,270.0
2023-04-10T09:49:03,42.805,6.029,-0.021,0.011,-0.028,106.0,102.0,102.0,13.4,1505.2,317.8,-0.8,1.8,2471.408,13.3,0.023,297.6
2023-04-10T09:52:03,42.805,6.029,0.007,0.001,-0.025,105.0,103.0,102.0,13.4,1505.2,339.0,-0.8,1.8,2471.387,13.3,0.007,81.9